If you wish to contribute or participate in the discussions about articles you are invited to join SKYbrary as a registered user

 Actions

Ahvaz International Airport

From SKYbrary Wiki

OIAW
Airport
ICAO: OIAW – IATA: AWZ
Summary
Name Ahvaz International Airport
Region Middle East
Territory Iran IR.gif
Location Ahvaz, Khuzestan
Serving Ahvas
Elevation 20.117 m
66 ft20.117 m
Coordinates 31° 20' 15.00" N, 48° 45' 37.00" E
Runways
Designator Length Width Surface ROPS
12/30 3398 m11,148.294 ft
45 m147.638 ft
ASP yes/yes


METAR
Observation OIAW 221000Z 35002KT CAVOK 22/04 Q1017
Station Ahwaz
Date/Time 22 February 2019 10:00:00
Wind direction 350°
Wind speed 02 kts
Lowest cloud amount clouds and visibility OK
Temperature 22°C
Dew point 4°C
Humidity 30%
QNH 1017 hPa
Weather condition n/a

Ahvaz (or Ahwaz) airport serves the city of Ahvaz, west Iran.

Climatology

Hot Desert Climate (Köppen climate classification BWh)

Maps

Terrain

Loading map...

Airport Layout

Loading map...


Accidents & Serious Incidents at or in vicinity of OIAW

None on SKYbrary